User: anonymous   Login
Location: Brownlee
(50.7397°N, 106.0159°W)
Time: 14:53:21
(UTC+00:00)
Language:

Envisat - Orbit

View from above orbital plane
View from above orbital plane
View from above satellite
View from above satellite

Ground track
Ground track

The orbit data is extracted from the following two-line orbital elements,

1 27386U 02009A   24105.94008480  .00000308  00000-0  11444-3 0  9990
2 27386  98.2767  69.2485 0001253  81.8700 346.0785 14.38538759159489
Epoch (UTC): 14 April 2024 22:33:43
Eccentricity: 0.0001253
inclination: 98.2767°
perigee height: 762 km
apogee height: 764 km
right ascension of ascending node: 69.2485°
argument of perigee: 81.8700°
revolutions per day: 14.38538759
mean anomaly at epoch: 346.0785°
orbit number at epoch: 15948

The dashed part of the orbit path shows where the satellite is in the earth's shadow,  

DLR